EZS32GV LSGG-LFKJ

Flight info

Callsign EZS32GV
Flight time 0h 52m
Altitude 31000
Route MEDAM DCT OMARD M623 VAREK
Aircraft A320/M-SDE3FGHIRWY/LB1

Departure

Time 2026-04-22 11:16
Airport Geneva International Airport (LSGG)

Arrival

Time 2026-04-22 12:09
Airport Ajaccio Napoléon Bonaparte airport (LFKJ)
Time Latitude Longitude Altitude Speed Heading
2026-04-22 10:39 46.23451 6.10850 1393 ft 0 kts 136°
2026-04-22 11:10 46.23450 6.10850 1393 ft 1 kts 136°
2026-04-22 11:11 46.23428 6.10881 1393 ft 5 kts 136°
2026-04-22 11:11 46.23400 6.10902 1401 ft 7 kts 186°
2026-04-22 11:11 46.23350 6.10839 1406 ft 10 kts 225°
2026-04-22 11:11 46.23296 6.10797 1401 ft 8 kts 197°
2026-04-22 11:12 46.23247 6.10772 1396 ft 7 kts 206°
2026-04-22 11:12 46.23211 6.10723 1393 ft 9 kts 226°
2026-04-22 11:12 46.23195 6.10650 1396 ft 9 kts 294°
2026-04-22 11:12 46.23248 6.10571 1393 ft 13 kts 316°
2026-04-22 11:13 46.23287 6.10493 1399 ft 10 kts 268°
2026-04-22 11:13 46.23237 6.10406 1400 ft 14 kts 226°
2026-04-22 11:13 46.23146 6.10268 1399 ft 20 kts 229°
2026-04-22 11:13 46.23048 6.10118 1399 ft 21 kts 225°
2026-04-22 11:14 46.22946 6.09965 1403 ft 22 kts 226°
2026-04-22 11:14 46.22837 6.09807 1395 ft 23 kts 227°
2026-04-22 11:14 46.22723 6.09639 1399 ft 24 kts 226°
2026-04-22 11:14 46.22603 6.09463 1395 ft 25 kts 229°
2026-04-22 11:15 46.22552 6.09263 1408 ft 16 kts 290°
2026-04-22 11:15 46.22571 6.09181 1414 ft 5 kts 302°
2026-04-22 11:15 46.22596 6.09160 1416 ft 5 kts 346°
2026-04-22 11:15 46.22662 6.09217 1418 ft 20 kts 48°
2026-04-22 11:16 46.22875 6.09526 1419 ft 79 kts 46°
2026-04-22 11:16 46.23377 6.10274 1395 ft 140 kts 45°
2026-04-22 11:16 46.24127 6.11348 1857 ft 148 kts 46°
2026-04-22 11:16 46.24846 6.12421 2427 ft 149 kts 46°
2026-04-22 11:17 46.25578 6.13503 2875 ft 159 kts 45°
2026-04-22 11:17 46.26393 6.14702 3262 ft 176 kts 45°
2026-04-22 11:17 46.27296 6.16030 3669 ft 193 kts 46°
2026-04-22 11:17 46.28276 6.17479 4091 ft 210 kts 46°
2026-04-22 11:18 46.29345 6.19058 4522 ft 230 kts 45°
2026-04-22 11:18 46.30509 6.20775 5081 ft 247 kts 45°
2026-04-22 11:18 46.31761 6.22616 5666 ft 265 kts 45°
2026-04-22 11:18 46.33080 6.24551 6435 ft 273 kts 45°
2026-04-22 11:19 46.34420 6.26521 7352 ft 276 kts 46°
2026-04-22 11:19 46.35694 6.28634 8221 ft 280 kts 59°
2026-04-22 11:19 46.36378 6.31263 9102 ft 283 kts 81°
2026-04-22 11:19 46.36378 6.34125 9960 ft 287 kts 101°
2026-04-22 11:20 46.35715 6.36859 10754 ft 291 kts 120°
2026-04-22 11:20 46.34426 6.39153 11430 ft 301 kts 141°
2026-04-22 11:20 46.32582 6.40597 11918 ft 316 kts 165°
2026-04-22 11:20 46.30359 6.40803 12440 ft 327 kts 189°
2026-04-22 11:21 46.28104 6.40184 13175 ft 331 kts 191°
2026-04-22 11:21 46.25841 6.39532 14009 ft 333 kts 193°
2026-04-22 11:21 46.23561 6.38869 14737 ft 336 kts 194°
2026-04-22 11:21 46.21246 6.38193 15344 ft 342 kts 195°
2026-04-22 11:22 46.18884 6.37504 15824 ft 351 kts 195°
2026-04-22 11:22 46.16452 6.36798 16310 ft 361 kts 195°
2026-04-22 11:22 46.13965 6.36081 16872 ft 367 kts 196°
2026-04-22 11:22 46.11438 6.35361 17476 ft 372 kts 197°
2026-04-22 11:23 46.08878 6.34635 18073 ft 377 kts 197°
2026-04-22 11:23 46.06294 6.33906 18651 ft 381 kts 198°
2026-04-22 11:23 46.03673 6.33168 19232 ft 386 kts 197°
2026-04-22 11:23 46.01022 6.32421 19817 ft 389 kts 198°
2026-04-22 11:24 45.98386 6.31677 20398 ft 394 kts 198°
2026-04-22 11:24 45.95682 6.30912 20964 ft 397 kts 199°
2026-04-22 11:24 45.92898 6.30388 21496 ft 410 kts 189°
2026-04-22 11:24 45.90021 6.30658 21979 ft 423 kts 176°
2026-04-22 11:25 45.87144 6.31825 22472 ft 436 kts 163°
2026-04-22 11:25 45.84432 6.33890 22976 ft 447 kts 148°
2026-04-22 11:25 45.81913 6.36554 23471 ft 453 kts 146°
2026-04-22 11:25 45.79373 6.39263 23912 ft 458 kts 146°
2026-04-22 11:26 45.76806 6.41984 24310 ft 460 kts 147°
2026-04-22 11:26 45.74226 6.44708 24738 ft 464 kts 147°
2026-04-22 11:26 45.71612 6.47466 25157 ft 468 kts 146°
2026-04-22 11:26 45.68962 6.50262 25595 ft 472 kts 147°
2026-04-22 11:27 45.66317 6.53052 26001 ft 474 kts 147°
2026-04-22 11:27 45.63646 6.55867 26394 ft 478 kts 146°
2026-04-22 11:27 45.60960 6.58695 26778 ft 481 kts 146°
2026-04-22 11:27 45.58261 6.61534 27138 ft 485 kts 146°
2026-04-22 11:28 45.55536 6.64399 27486 ft 487 kts 146°
2026-04-22 11:28 45.52797 6.67273 27845 ft 491 kts 146°
2026-04-22 11:28 45.50034 6.70167 28218 ft 493 kts 146°
2026-04-22 11:28 45.47291 6.73035 28553 ft 496 kts 146°
2026-04-22 11:29 45.44493 6.75951 28835 ft 499 kts 147°
2026-04-22 11:29 45.41667 6.78842 29169 ft 502 kts 148°
2026-04-22 11:29 45.38805 6.81717 29488 ft 504 kts 148°
2026-04-22 11:29 45.35923 6.84584 29774 ft 506 kts 148°
2026-04-22 11:30 45.33024 6.87453 30071 ft 510 kts 148°
2026-04-22 11:30 45.30100 6.90326 30381 ft 511 kts 150°
2026-04-22 11:30 45.27019 6.92811 30702 ft 508 kts 159°
2026-04-22 11:30 45.23760 6.94672 31008 ft 503 kts 168°
2026-04-22 11:31 45.20395 6.95909 31126 ft 495 kts 174°
2026-04-22 11:31 45.17093 6.96936 31153 ft 476 kts 174°
2026-04-22 11:31 45.13912 6.97937 31164 ft 461 kts 174°
2026-04-22 11:32 45.07637 6.99885 31182 ft 462 kts 174°
2026-04-22 11:32 45.01377 7.01812 31168 ft 460 kts 175°
2026-04-22 11:33 44.95108 7.03757 31184 ft 460 kts 175°
2026-04-22 11:33 44.88905 7.05688 31183 ft 460 kts 175°
2026-04-22 11:34 44.82872 7.07072 31173 ft 456 kts 177°
2026-04-22 11:34 44.76644 7.09056 31179 ft 459 kts 173°
2026-04-22 11:35 44.74968 7.09611 31184 ft 459 kts 174°
2026-04-22 11:35 44.71770 7.10623 31184 ft 459 kts 174°
2026-04-22 11:36 44.65538 7.12502 31178 ft 459 kts 175°
2026-04-22 11:36 44.59274 7.14377 31199 ft 459 kts 175°
2026-04-22 11:37 44.53047 7.16295 31197 ft 458 kts 174°
2026-04-22 11:37 44.46845 7.18215 31198 ft 458 kts 174°
2026-04-22 11:38 44.40620 7.20131 31186 ft 457 kts 174°
2026-04-22 11:38 44.31277 7.22975 31179 ft 457 kts 175°
2026-04-22 11:39 44.25048 7.24878 31170 ft 457 kts 175°
2026-04-22 11:39 44.18870 7.26759 31155 ft 459 kts 174°
2026-04-22 11:40 44.12631 7.28652 31146 ft 458 kts 175°
2026-04-22 11:40 44.06406 7.30541 31153 ft 457 kts 174°
2026-04-22 11:41 44.01215 7.32113 31151 ft 458 kts 175°
2026-04-22 11:41 43.95005 7.33990 31166 ft 454 kts 174°
2026-04-22 11:42 43.87836 7.36158 31143 ft 453 kts 174°
2026-04-22 11:42 43.82673 7.37699 31136 ft 453 kts 174°
2026-04-22 11:43 43.76543 7.39532 31128 ft 453 kts 174°
2026-04-22 11:43 43.70373 7.41384 31116 ft 454 kts 174°
2026-04-22 11:44 43.64196 7.43230 31115 ft 454 kts 174°
2026-04-22 11:44 43.58035 7.45073 31010 ft 451 kts 174°
2026-04-22 11:45 43.55000 7.45982 30763 ft 443 kts 174°
2026-04-22 11:45 43.51992 7.46878 30509 ft 441 kts 174°
2026-04-22 11:45 43.49006 7.47763 30254 ft 438 kts 174°
2026-04-22 11:45 43.46024 7.48646 30012 ft 437 kts 174°
2026-04-22 11:46 43.43063 7.49523 29763 ft 435 kts 174°
2026-04-22 11:46 43.40102 7.50399 29512 ft 433 kts 174°
2026-04-22 11:46 43.37168 7.51264 29263 ft 431 kts 174°
2026-04-22 11:46 43.34233 7.52127 29013 ft 430 kts 174°
2026-04-22 11:47 43.31320 7.52982 28761 ft 427 kts 174°
2026-04-22 11:47 43.28419 7.53834 28508 ft 425 kts 174°
2026-04-22 11:47 43.25534 7.54684 28264 ft 423 kts 174°
2026-04-22 11:47 43.22665 7.55529 28020 ft 421 kts 174°
2026-04-22 11:48 43.19808 7.56370 27769 ft 419 kts 174°
2026-04-22 11:48 43.16992 7.57198 27522 ft 417 kts 174°
2026-04-22 11:48 43.14162 7.58029 27273 ft 415 kts 174°
2026-04-22 11:48 43.11345 7.58860 27023 ft 414 kts 172°
2026-04-22 11:49 43.08587 7.60040 26774 ft 418 kts 165°
2026-04-22 11:49 43.05859 7.61414 26523 ft 415 kts 165°
2026-04-22 11:49 43.03155 7.62767 26277 ft 414 kts 165°
2026-04-22 11:49 43.00458 7.64109 26023 ft 412 kts 165°
2026-04-22 11:50 42.97769 7.65441 25773 ft 409 kts 165°
2026-04-22 11:50 42.95106 7.66757 25474 ft 404 kts 165°
2026-04-22 11:50 42.92471 7.68060 25004 ft 402 kts 165°
2026-04-22 11:50 42.89846 7.69355 24538 ft 400 kts 165°
2026-04-22 11:51 42.87238 7.70643 24058 ft 398 kts 165°
2026-04-22 11:51 42.84632 7.71931 23572 ft 397 kts 165°
2026-04-22 11:51 42.82040 7.73215 23093 ft 396 kts 165°
2026-04-22 11:51 42.79454 7.74492 22618 ft 394 kts 165°
2026-04-22 11:52 42.76879 7.75764 22152 ft 393 kts 165°
2026-04-22 11:52 42.74318 7.77028 21690 ft 392 kts 165°
2026-04-22 11:52 42.71793 7.78271 21231 ft 390 kts 165°
2026-04-22 11:52 42.69209 7.79544 20765 ft 389 kts 165°
2026-04-22 11:53 42.66702 7.80779 20322 ft 387 kts 165°
2026-04-22 11:53 42.64143 7.82041 19860 ft 386 kts 165°
2026-04-22 11:53 42.61657 7.83267 19428 ft 384 kts 165°
2026-04-22 11:53 42.59181 7.84484 19227 ft 375 kts 165°
2026-04-22 11:54 42.56731 7.85683 18780 ft 374 kts 165°
2026-04-22 11:54 42.54281 7.86875 18311 ft 374 kts 165°
2026-04-22 11:54 42.51835 7.88064 17805 ft 375 kts 165°
2026-04-22 11:54 42.49372 7.89263 17280 ft 376 kts 165°
2026-04-22 11:55 42.46910 7.90461 16910 ft 373 kts 165°
2026-04-22 11:55 42.44487 7.91644 16580 ft 368 kts 165°
2026-04-22 11:55 42.42080 7.92818 16149 ft 367 kts 165°
2026-04-22 11:55 42.39667 7.93990 15477 ft 371 kts 165°
2026-04-22 11:56 42.37257 7.95158 14831 ft 363 kts 165°
2026-04-22 11:56 42.34932 7.96300 14132 ft 358 kts 162°
2026-04-22 11:56 42.32752 7.97926 13413 ft 360 kts 145°
2026-04-22 11:56 42.30985 8.00302 12750 ft 357 kts 127°
2026-04-22 11:57 42.29788 8.03168 12336 ft 344 kts 112°
2026-04-22 11:57 42.28904 8.06135 11941 ft 338 kts 112°
2026-04-22 11:57 42.28028 8.09053 11532 ft 330 kts 112°
2026-04-22 11:57 42.27168 8.11904 11146 ft 327 kts 112°
2026-04-22 11:58 42.26319 8.14717 10745 ft 320 kts 112°
2026-04-22 11:58 42.25489 8.17474 10358 ft 313 kts 112°
2026-04-22 11:58 42.24673 8.20179 9965 ft 307 kts 112°
2026-04-22 11:58 42.23879 8.22811 9574 ft 300 kts 112°
2026-04-22 11:59 42.23103 8.25385 9200 ft 293 kts 112°
2026-04-22 11:59 42.22345 8.27900 8838 ft 285 kts 112°
2026-04-22 11:59 42.21615 8.30316 8437 ft 279 kts 112°
2026-04-22 11:59 42.20888 8.32714 8049 ft 273 kts 112°
2026-04-22 12:00 42.20179 8.35055 7662 ft 266 kts 112°
2026-04-22 12:00 42.19485 8.37345 7289 ft 262 kts 112°
2026-04-22 12:00 42.18793 8.39619 6897 ft 261 kts 112°
2026-04-22 12:00 42.18108 8.41872 6512 ft 259 kts 112°
2026-04-22 12:01 42.17427 8.44110 6166 ft 254 kts 112°
2026-04-22 12:01 42.16771 8.46276 5865 ft 246 kts 112°
2026-04-22 12:01 42.16061 8.48308 5992 ft 244 kts 122°
2026-04-22 12:01 42.14994 8.50087 5877 ft 245 kts 138°
2026-04-22 12:02 42.13700 8.51545 5627 ft 243 kts 141°
2026-04-22 12:02 42.12402 8.52995 5367 ft 242 kts 140°
2026-04-22 12:02 42.11111 8.54443 5131 ft 241 kts 140°
2026-04-22 12:02 42.09827 8.55886 4894 ft 240 kts 140°
2026-04-22 12:03 42.08544 8.57328 4658 ft 240 kts 140°
2026-04-22 12:03 42.07267 8.58762 4427 ft 239 kts 140°
2026-04-22 12:03 42.05995 8.60194 4196 ft 237 kts 140°
2026-04-22 12:03 42.04743 8.61600 3968 ft 237 kts 140°
2026-04-22 12:04 42.03499 8.62993 3846 ft 227 kts 140°
2026-04-22 12:04 42.02334 8.64296 3760 ft 207 kts 140°
2026-04-22 12:04 42.01325 8.65539 3682 ft 188 kts 128°
2026-04-22 12:04 42.00735 8.67040 3419 ft 178 kts 105°
2026-04-22 12:05 42.00502 8.68667 2997 ft 177 kts 99°
2026-04-22 12:05 42.00279 8.70280 2608 ft 178 kts 103°
2026-04-22 12:05 41.99902 8.71866 2262 ft 175 kts 112°
2026-04-22 12:05 41.99385 8.73288 1992 ft 165 kts 122°
2026-04-22 12:06 41.98890 8.74647 1765 ft 161 kts 107°
2026-04-22 12:06 41.98711 8.76155 1392 ft 162 kts 93°
2026-04-22 12:06 41.98752 8.77619 1307 ft 156 kts 88°
2026-04-22 12:06 41.98834 8.79066 1177 ft 154 kts 87°
2026-04-22 12:07 41.98872 8.80495 1062 ft 153 kts 102°
2026-04-22 12:07 41.98457 8.81770 941 ft 147 kts 134°
2026-04-22 12:07 41.97648 8.82557 802 ft 144 kts 163°
2026-04-22 12:07 41.96679 8.82750 668 ft 140 kts 189°
2026-04-22 12:08 41.95759 8.82360 541 ft 140 kts 208°
2026-04-22 12:08 41.94883 8.81780 407 ft 140 kts 205°
2026-04-22 12:08 41.93994 8.81256 283 ft 140 kts 206°
2026-04-22 12:08 41.93112 8.80699 95 ft 140 kts 206°
2026-04-22 12:09 41.92254 8.80160 20 ft 120 kts 207°
2026-04-22 12:09 41.91759 8.79853 17 ft 50 kts 206°
2026-04-22 12:09 41.91490 8.79685 17 ft 35 kts 205°
2026-04-22 12:09 41.91310 8.79572 22 ft 16 kts 206°
2026-04-22 12:10 41.91249 8.79515 23 ft 10 kts 238°
2026-04-22 12:10 41.91250 8.79437 23 ft 8 kts 301°
2026-04-22 12:10 41.91291 8.79400 23 ft 7 kts 333°
2026-04-22 12:10 41.91335 8.79371 25 ft 5 kts 334°
2026-04-22 12:11 41.91373 8.79347 26 ft 12 kts 335°
2026-04-22 12:11 41.91495 8.79356 26 ft 20 kts 27°
2026-04-22 12:11 41.91613 8.79428 26 ft 15 kts 25°
2026-04-22 12:11 41.91695 8.79480 26 ft 12 kts 25°
2026-04-22 12:12 41.91761 8.79521 26 ft 10 kts 25°
2026-04-22 12:12 41.91807 8.79544 26 ft 5 kts 352°
2026-04-22 12:12 41.91820 8.79526 26 ft 2 kts 301°
2026-04-22 12:12 41.91835 8.79512 26 ft 5 kts 338°
2026-04-22 12:13 41.91839 8.79509 26 ft 1 kts 332°
2026-04-22 12:13 41.91843 8.79508 26 ft 0 kts 343°
2026-04-22 12:13 41.91844 8.79507 26 ft 0 kts 343°